• In Germany
  • List of Countries
  • For 7 days
  • Water Temperature
  • Satellite Maps
  • Weather Map
  • Weather Widgets
  • user-avatar
    Login

    Hourly Weather Sydney

    Today, 22 July, Sunday

    Time Temperature Precipitation Wind Pressure Humidity
    00:00 +6°C° 0 mm 2 mps 767 mmHg 69%
    01:00 +5°C° 0 mm 3 mps 767 mmHg 71%
    02:00 +5°C° 0 mm 3 mps 767 mmHg 71%
    03:00 +5°C° 0 mm 2 mps 767 mmHg 70%
    04:00 +5°C° 0 mm 2 mps 767 mmHg 72%
    05:00 +5°C° 0 mm 2 mps 767 mmHg 71%
    06:00 +5°C° 0 mm 2 mps 767 mmHg 71%
    07:00 +5°C° 0 mm 2 mps 767 mmHg 71%
    08:00 +7°C° 0 mm 2 mps 767 mmHg 62%
    09:00 +10°C° 0 mm 2 mps 767 mmHg 52%
    10:00 +14°C° 0 mm 1 mps 767 mmHg 43%
    11:00 +15°C° 0 mm 1 mps 767 mmHg 39%
    12:00 +16°C° 0 mm 2 mps 766 mmHg 36%
    13:00 +18°C° 0 mm 2 mps 765 mmHg 32%
    14:00 +17°C° 0 mm 2 mps 765 mmHg 33%
    15:00 +17°C° 0 mm 3 mps 765 mmHg 34%
    16:00 +17°C° 0 mm 3 mps 764 mmHg 35%
    17:00 +14°C° 0 mm 3 mps 765 mmHg 43%
    18:00 +12°C° 0 mm 3 mps 765 mmHg 51%
    19:00 +10°C° 0 mm 4 mps 765 mmHg 60%
    20:00 +8°C° 0 mm 4 mps 765 mmHg 62%
    21:00 +8°C° 0 mm 4 mps 766 mmHg 65%
    22:00 +7°C° 0 mm 4 mps 766 mmHg 68%
    23:00 +6°C° 0 mm 4 mps 766 mmHg 68%

    Tomorrow, 23 July, Monday

    Time Temperature Precipitation Wind Pressure Humidity
    00:00 +7°C° 0 mm 3 mps 765 mmHg 68%
    01:00 +5°C° 0 mm 3 mps 765 mmHg 68%
    02:00 +5°C° 0 mm 3 mps 765 mmHg 68%
    03:00 +4°C° 0 mm 3 mps 765 mmHg 67%
    04:00 +4°C° 0 mm 3 mps 765 mmHg 66%
    05:00 +5°C° 0 mm 2 mps 765 mmHg 65%
    06:00 +5°C° 0 mm 2 mps 765 mmHg 64%
    07:00 +5°C° 0 mm 2 mps 765 mmHg 63%
    08:00 +7°C° 0 mm 2 mps 764 mmHg 54%
    09:00 +10°C° 0 mm 2 mps 764 mmHg 45%
    10:00 +14°C° 0 mm 2 mps 764 mmHg 36%
    11:00 +16°C° 0 mm 2 mps 763 mmHg 32%
    12:00 +18°C° 0 mm 3 mps 762 mmHg 28%
    13:00 +19°C° 0 mm 3 mps 762 mmHg 24%
    14:00 +19°C° 0 mm 3 mps 761 mmHg 25%
    15:00 +19°C° 0 mm 3 mps 761 mmHg 27%
    16:00 +19°C° 0 mm 3 mps 760 mmHg 28%
    17:00 +17°C° 0 mm 4 mps 761 mmHg 33%
    18:00 +14°C° 0 mm 4 mps 761 mmHg 37%
    19:00 +12°C° 0 mm 5 mps 761 mmHg 42%
    20:00 +10°C° 0 mm 5 mps 761 mmHg 43%
    21:00 +9°C° 0 mm 5 mps 761 mmHg 44%
    22:00 +9°C° 0 mm 5 mps 761 mmHg 46%
    23:00 +8°C° 0 mm 5 mps 761 mmHg 46%

    Day after tomorrow, 24 July, Tuesday

    Time Temperature Precipitation Wind Pressure Humidity
    00:00 +8°C° 0 mm 4 mps 761 mmHg 46%
    01:00 +8°C° 0 mm 4 mps 760 mmHg 47%
    02:00 +10°C° 0 mm 4 mps 760 mmHg 44%
    03:00 +10°C° 0 mm 4 mps 759 mmHg 42%
    04:00 +11°C° 0 mm 4 mps 759 mmHg 40%
    05:00 +11°C° 0 mm 4 mps 759 mmHg 42%
    06:00 +11°C° 0 mm 4 mps 760 mmHg 44%
    07:00 +11°C° 0 mm 4 mps 760 mmHg 45%
    08:00 +13°C° 0 mm 4 mps 760 mmHg 43%
    09:00 +16°C° 0 mm 3 mps 760 mmHg 42%
    10:00 +19°C° 0 mm 3 mps 760 mmHg 40%
    11:00 +20°C° 0 mm 3 mps 760 mmHg 36%
    12:00 +21°C° 0 mm 2 mps 759 mmHg 33%
    13:00 +24°C° 0 mm 2 mps 759 mmHg 30%
    14:00 +23°C° 0 mm 2 mps 758 mmHg 31%
    15:00 +23°C° 0 mm 2 mps 758 mmHg 31%
    16:00 +23°C° 0 mm 2 mps 758 mmHg 32%
    17:00 +20°C° 0 mm 3 mps 759 mmHg 37%
    18:00 +17°C° 0 mm 3 mps 759 mmHg 43%
    19:00 +14°C° 0 mm 3 mps 760 mmHg 48%
    20:00 +13°C° 0 mm 3 mps 760 mmHg 52%
    21:00 +12°C° 0 mm 3 mps 760 mmHg 56%
    22:00 +11°C° 0 mm 3 mps 761 mmHg 59%
    23:00 +11°C° 0 mm 3 mps 761 mmHg 62%

    25 July, Wednesday

    Time Temperature Precipitation Wind Pressure Humidity
    00:00 +10°C° 0 mm 4 mps 761 mmHg 64%
    01:00 +10°C° 0 mm 4 mps 761 mmHg 67%
    02:00 +10°C° 0 mm 4 mps 761 mmHg 68%
    03:00 +8°C° 0 mm 4 mps 761 mmHg 69%
    04:00 +8°C° 0 mm 4 mps 761 mmHg 71%
    05:00 +8°C° 0 mm 4 mps 761 mmHg 72%
    06:00 +8°C° 0 mm 4 mps 762 mmHg 73%
    07:00 +8°C° 0 mm 4 mps 762 mmHg 74%
    08:00 +12°C° 0 mm 4 mps 762 mmHg 65%
    09:00 +14°C° 0 mm 4 mps 762 mmHg 57%
    10:00 +17°C° 0 mm 5 mps 762 mmHg 49%
    11:00 +19°C° 0 mm 5 mps 762 mmHg 47%
    12:00 +20°C° 0 mm 5 mps 761 mmHg 44%
    13:00 +21°C° 0 mm 4 mps 761 mmHg 41%
    14:00 +20°C° 0 mm 5 mps 761 mmHg 42%
    15:00 +20°C° 0 mm 5 mps 761 mmHg 44%
    16:00 +19°C° 0 mm 5 mps 760 mmHg 45%
    17:00 +17°C° 0 mm 4 mps 761 mmHg 53%
    18:00 +14°C° 0 mm 4 mps 761 mmHg 60%
    19:00 +12°C° 0 mm 4 mps 762 mmHg 68%
    20:00 +12°C° 0 mm 4 mps 762 mmHg 71%
    21:00 +11°C° 0 mm 4 mps 763 mmHg 74%
    22:00 +11°C° 0 mm 4 mps 763 mmHg 78%
    23:00 +10°C° 0 mm 4 mps 763 mmHg 80%

    26 July, Thursday

    Time Temperature Precipitation Wind Pressure Humidity
    00:00 +10°C° 0 mm 4 mps 763 mmHg 82%
    01:00 +10°C° 0 mm 4 mps 763 mmHg 84%
    02:00 +8°C° 0 mm 4 mps 764 mmHg 85%
    03:00 +8°C° 0 mm 4 mps 764 mmHg 87%
    04:00 +8°C° 0 mm 4 mps 764 mmHg 88%
    05:00 +8°C° 0 mm 3 mps 764 mmHg 89%
    06:00 +8°C° 0 mm 3 mps 764 mmHg 90%
    07:00 +8°C° 0 mm 3 mps 765 mmHg 91%
    08:00 +12°C° 0 mm 2 mps 765 mmHg 79%
    09:00 +14°C° 0 mm 2 mps 765 mmHg 67%
    10:00 +17°C° 0 mm 2 mps 765 mmHg 56%
    11:00 +18°C° 0 mm 2 mps 764 mmHg 50%
    12:00 +21°C° 0 mm 1 mps 763 mmHg 44%
    13:00 +23°C° 0 mm 1 mps 762 mmHg 39%
    14:00 +21°C° 0 mm 2 mps 762 mmHg 41%
    15:00 +20°C° 0 mm 2 mps 762 mmHg 44%
    16:00 +19°C° 0 mm 3 mps 762 mmHg 47%
    17:00 +17°C° 0 mm 3 mps 762 mmHg 55%
    18:00 +16°C° 0 mm 3 mps 763 mmHg 64%
    19:00 +13°C° 0 mm 3 mps 763 mmHg 72%
    20:00 +13°C° 0 mm 3 mps 763 mmHg 77%
    21:00 +12°C° 0 mm 3 mps 763 mmHg 81%
    22:00 +11°C° 0 mm 3 mps 764 mmHg 85%
    23:00 +12°C° 0.1 mm 2 mps 764 mmHg 86%

    27 July, Friday

    Time Temperature Precipitation Wind Pressure Humidity
    00:00 +10°C° 0.1 mm 2 mps 763 mmHg 87%
    01:00 +10°C° 0.1 mm 2 mps 763 mmHg 88%
    02:00 +10°C° 0 mm 2 mps 763 mmHg 88%
    03:00 +10°C° 0 mm 2 mps 762 mmHg 89%
    04:00 +10°C° 0 mm 1 mps 762 mmHg 89%
    05:00 +10°C° 0 mm 1 mps 762 mmHg 89%
    06:00 +10°C° 0 mm 1 mps 762 mmHg 90%
    07:00 +9°C° 0 mm 1 mps 762 mmHg 90%
    08:00 +12°C° 0 mm 1 mps 762 mmHg 80%
    09:00 +14°C° 0 mm 1 mps 761 mmHg 69%
    10:00 +16°C° 0 mm 1 mps 761 mmHg 59%
    11:00 +18°C° 0 mm 1 mps 760 mmHg 55%
    12:00 +19°C° 0 mm 1 mps 759 mmHg 52%
    13:00 +20°C° 0 mm 1 mps 758 mmHg 48%
    14:00 +19°C° 0 mm 2 mps 758 mmHg 53%
    15:00 +18°C° 0 mm 2 mps 758 mmHg 57%
    16:00 +18°C° 0 mm 2 mps 757 mmHg 61%
    17:00 +17°C° 0.2 mm 2 mps 757 mmHg 71%
    18:00 +15°C° 0.2 mm 2 mps 757 mmHg 80%
    19:00 +13°C° 0.2 mm 3 mps 757 mmHg 89%
    20:00 +13°C° 0 mm 3 mps 757 mmHg 90%
    21:00 +12°C° 0 mm 3 mps 757 mmHg 92%
    22:00 +12°C° 0 mm 3 mps 757 mmHg 93%
    23:00 +12°C° 0.3 mm 3 mps 756 mmHg 93%
    Show more